[[{"header":{"parameterUnit":"m.s-1","parameterCategory":1,"la1":30.2991,"la2":30.254,"lo1":-89.0895,"lo2":-89.0444,"dy":0.0017,"dx":0.0017,"nx":28,"ny":28,"refTime":"2024-03-10T21:00:00:Z","depth":0,"parameterNumber":2,"parameterNumberName":"U-component_of_WINDS"},"data":[0,0,0,0,0,0,0,0,0,0,0,0,0,0,0,0,0,0,0,0,0,0,0,0,0,0,0,0,0,0,0,0,0,0,0,0,0,0,0,0,0,0,0,0,0,0,0,0,0,0,0,0,0,0,0,0,0,0,1.2392,1.2393,0,1.2426,1.2426,1.2426,1.2438,1.2437,1.2437,1.2437,1.2471,1.2472,1.2473,0,0,0,0,0,0,0,0,0,0,0,0,0,1.234,1.234,1.2392,1.2393,1.2393,1.2426,1.2426,1.2427,1.2438,1.2437,1.2437,1.2437,1.2471,1.2472,1.2473,0,0,0,0,0,0,0,0,0,0,0,0,0,1.2367,1.2341,1.2392,1.2403,1.2404,1.2426,1.2426,1.2427,1.2438,1.2437,1.2437,1.2437,1.2471,1.2472,1.2474,1.2487,0,0,1.2478,1.2479,0,0,0,0,0,0,0,0,1.2365,1.2369,1.2401,1.2402,1.2403,1.2427,1.242,1.2447,1.2438,1.2425,1.2437,1.2437,1.2457,1.246,1.2466,1.2489,1.2491,1.2479,1.2479,1.248,1.2481,0,0,0,0,0,0,0,1.2363,1.2367,1.2406,1.2401,1.2403,1.2406,1.241,1.2425,1.2442,1.2426,1.2427,1.2431,1.2458,1.2465,1.2467,1.2491,1.2478,1.248,1.2481,1.2481,1.2529,1.2529,0,0,0,0,0,0,1.236,1.2366,1.2405,1.2407,1.2383,1.2407,1.2411,1.242,1.2441,1.2445,1.2431,1.2431,1.2462,1.2465,1.2468,1.2487,1.248,1.2482,1.2483,1.2528,1.2529,1.2529,0,0,0,0,0,0,1.2358,1.2363,1.2403,1.2386,1.2392,1.2408,1.2418,1.2421,1.2428,1.2445,1.2448,1.2435,1.2462,1.2466,1.2483,1.2488,1.2482,1.2484,1.2528,1.2528,1.2529,1.2523,0,0,0,0,0,0,1.2357,1.2362,1.2367,1.2386,1.2393,1.2417,1.2418,1.2421,1.243,1.2431,1.245,1.2453,1.2462,1.2481,1.2485,1.249,1.2485,1.2527,1.2528,1.2529,1.2523,1.2523,1.2524,0,0,0,0,0,1.2355,1.2364,1.2368,1.2372,1.2399,1.2417,1.2421,1.2431,1.2431,1.2436,1.2448,1.2452,1.2487,1.2482,1.2487,1.2493,1.2527,1.2528,1.2529,1.2523,1.2523,1.2524,0,0,0,0,0,0,1.2345,1.2367,1.2371,1.2386,1.24,1.2419,1.2426,1.2431,1.2445,1.2445,1.2458,1.2462,1.2478,1.2487,1.2481,1.2508,1.2507,1.2509,1.2501,1.2502,1.2502,1.25,1.2486,0,0,0,0,0,1.2345,1.2357,1.2376,1.2388,1.2394,1.2409,1.2417,1.2424,1.2439,1.2444,1.2457,1.2471,1.2485,1.2494,1.2508,1.2525,1.2529,1.2531,1.2532,1.2532,1.2533,1.2543,1.2545,1.2531,1.2531,1.2531,0,0,1.2344,1.2358,1.2364,1.2386,1.2397,1.241,1.2414,1.2427,1.2437,1.2447,1.2463,1.2473,1.249,1.2507,1.2515,1.2515,1.2538,1.2533,1.2533,1.2534,1.2544,1.2545,1.2546,1.2532,1.2532,1.2532,0,0,1.235,1.2361,1.2373,1.2384,1.2401,1.2411,1.2414,1.2433,1.244,1.2457,1.2465,1.2477,1.2501,1.2513,1.2522,1.2534,1.2539,1.2538,1.254,1.255,1.2551,1.2552,1.2556,1.2558,1.2539,1.2539,1.2539,0,1.2347,1.2366,1.2378,1.2391,1.2401,1.2411,1.2423,1.2434,1.2455,1.2461,1.2461,1.2493,1.2504,1.2524,1.2528,1.2535,1.2539,1.2535,1.255,1.2551,1.2552,1.2556,1.2558,1.2539,1.2539,1.2539,1.2539,0,1.2362,1.2376,1.2383,1.2403,1.2414,1.2427,1.2441,1.2451,1.2458,1.2468,1.2486,1.25,1.2518,1.2524,1.253,1.2545,1.2545,1.2547,1.2546,1.2553,1.2557,1.2559,1.2539,1.2539,1.2539,1.2539,0,0,1.2361,1.2389,1.2391,1.2401,1.2421,1.2432,1.2446,1.2464,1.2472,1.2486,1.2499,1.252,1.2522,1.2533,1.2541,1.255,1.2559,1.2551,1.2552,1.2552,1.2577,1.2575,1.2577,1.2563,1.2563,1.2563,1.2576,0,1.2369,1.2394,1.2406,1.2425,1.2439,1.2449,1.2461,1.2475,1.2486,1.2499,1.2511,1.2525,1.2528,1.2534,1.2543,1.2556,1.2564,1.2555,1.2574,1.2575,1.257,1.2579,1.2577,1.2588,1.2578,1.2578,1.2578,0,1.2382,1.2397,1.2418,1.2438,1.2444,1.2454,1.2472,1.2484,1.2501,1.2508,1.2521,1.2529,1.2545,1.2544,1.2566,1.2559,1.2568,1.2576,1.2577,1.2578,1.2577,1.2581,1.2592,1.2593,1.2581,1.2581,1.2581,0,1.2379,1.2405,1.2421,1.2429,1.2452,1.246,1.247,1.2487,1.2497,1.2513,1.2519,1.2537,1.2546,1.256,1.2573,1.2571,1.2594,1.2594,1.26,1.26,1.2604,1.2604,1.2616,1.261,1.261,1.261,1.261,0,1.2387,1.24,1.242,1.243,1.2445,1.2459,1.2473,1.2484,1.2499,1.2512,1.2522,1.2534,1.2551,1.2565,1.2575,1.2592,1.2597,1.2603,1.2606,1.2602,1.2601,1.2607,1.2607,1.2611,1.2611,1.2611,1.261,0,1.2386,1.24,1.2419,1.244,1.2446,1.2456,1.2474,1.2485,1.2496,1.2512,1.2517,1.2535,1.2552,1.2567,1.2589,1.2597,1.2615,1.2618,1.2609,1.261,1.2616,1.2615,1.2633,1.2636,1.2628,1.2628,1.2628,0,1.239,1.24,1.2423,1.2432,1.2442,1.2457,1.2468,1.2482,1.2493,1.2514,1.2522,1.254,1.2555,1.2583,1.2598,1.2616,1.2619,1.2624,1.2622,1.2618,1.262,1.2619,1.262,1.2624,1.2624,1.2624,1.2624,0,1.2396,1.2402,1.2417,1.2435,1.2448,1.2462,1.2477,1.2484,1.2502,1.2514,1.2532,1.2544,1.2567,1.2585,1.2605,1.2616,1.2623,1.2625,1.2628,1.2624,1.2618,1.2622,1.2609,1.2624,1.2624,1.2624,1.2624,1.2624,1.2397,1.2407,1.2425,1.2441,1.2454,1.2468,1.2479,1.2493,1.2508,1.2528,1.2536,1.2555,1.2573,1.26,1.2611,1.2627,1.2627,1.2631,1.2632,1.2632,1.2632,1.2616,1.263,1.263,1.263,1.263,1.263,0,1.2404,1.2416,1.2431,1.2452,1.2465,1.2471,1.2488,1.2499,1.2515,1.2531,1.2546,1.2568,1.2586,1.2603,1.2622,1.2631,1.2635,1.2636,1.2635,1.2637,1.263,1.2626,1.2632,1.2632,1.2632,1.2632,1.2632,1.2632,1.2408,1.2425,1.2434,1.2458,1.2471,1.2489,1.2498,1.2512,1.2525,1.2548,1.2563,1.2574,1.2591,1.2612,1.2629,1.2634,1.264,1.264,1.2646,1.2638,1.2638,1.2637,1.2634,1.2641,1.2641,1.2652,1.2652,1.2652]},{"header":{"parameterUnit":"m.s-1","parameterCategory":1,"la1":30.2991,"la2":30.254,"lo1":-89.0895,"lo2":-89.0444,"dy":0.0017,"dx":0.0017,"nx":28,"ny":28,"refTime":"2024-03-10T21:00:00:Z","depth":0,"parameterNumber":3,"parameterNumberName":"V-component_of_WINDS"},"data":[0,0,0,0,0,0,0,0,0,0,0,0,0,0,0,0,0,0,0,0,0,0,0,0,0,0,0,0,0,0,0,0,0,0,0,0,0,0,0,0,0,0,0,0,0,0,0,0,0,0,0,0,0,0,0,0,0,0,-3.9708,-3.9708,0,-3.9781,-3.9782,-3.9782,-3.9799,-3.9798,-3.9798,-3.9797,-3.9866,-3.9868,-3.987,0,0,0,0,0,0,0,0,0,0,0,0,0,-3.9579,-3.9581,-3.9708,-3.9708,-3.9709,-3.9781,-3.9782,-3.9783,-3.9799,-3.9798,-3.9798,-3.9797,-3.9865,-3.9868,-3.987,0,0,0,0,0,0,0,0,0,0,0,0,0,-3.9641,-3.9582,-3.9707,-3.9726,-3.9729,-3.978,-3.9782,-3.9783,-3.9799,-3.9798,-3.9798,-3.9797,-3.9864,-3.9867,-3.9871,-3.9907,0,0,-3.9881,-3.9883,0,0,0,0,0,0,0,0,-3.9638,-3.9646,-3.9723,-3.9725,-3.9728,-3.978,-3.9761,-3.9824,-3.9799,-3.9772,-3.9797,-3.9796,-3.9837,-3.9843,-3.9858,-3.991,-3.9913,-3.9882,-3.9884,-3.9885,-3.9886,0,0,0,0,0,0,0,-3.9633,-3.9643,-3.9736,-3.9724,-3.9727,-3.973,-3.9738,-3.9773,-3.9808,-3.9774,-3.9776,-3.9785,-3.9839,-3.9855,-3.986,-3.9914,-3.9881,-3.9885,-3.9887,-3.9888,-4.0002,-4.0003,0,0,0,0,0,0,-3.9626,-3.9639,-3.9734,-3.9738,-3.968,-3.9733,-3.9742,-3.9764,-3.9808,-3.9814,-3.9785,-3.9785,-3.9849,-3.9856,-3.9862,-3.991,-3.9885,-3.9888,-3.989,-4.0001,-4.0003,-4.0004,0,0,0,0,0,0,-3.9623,-3.9635,-3.9731,-3.9689,-3.9702,-3.9736,-3.976,-3.9766,-3.9782,-3.9816,-3.9821,-3.9796,-3.9849,-3.9857,-3.9897,-3.9912,-3.989,-3.9893,-4.0,-4.0002,-4.0003,-4.0003,0,0,0,0,0,0,-3.962,-3.9633,-3.9648,-3.969,-3.9704,-3.9765,-3.9761,-3.9768,-3.9789,-3.9789,-3.9827,-3.9832,-3.9849,-3.9892,-3.99,-3.9917,-3.9896,-3.9999,-4.0001,-4.0003,-4.0002,-4.0005,-4.0007,0,0,0,0,0,-3.9615,-3.9643,-3.9649,-3.966,-3.9723,-3.9766,-3.9774,-3.9795,-3.979,-3.9805,-3.9827,-3.9831,-3.9909,-3.9896,-3.9905,-3.9923,-3.9998,-4.0,-4.0003,-4.0001,-4.0004,-4.0007,0,0,0,0,0,0,-3.9599,-3.9649,-3.9655,-3.9698,-3.9728,-3.9769,-3.9788,-3.9797,-3.9827,-3.9826,-3.9848,-3.9857,-3.9895,-3.9913,-3.9897,-3.9962,-3.9953,-3.9958,-3.9949,-3.9952,-3.9955,-3.995,-3.9898,0,0,0,0,0,-3.9601,-3.9634,-3.9674,-3.9708,-3.9723,-3.9753,-3.9772,-3.9786,-3.9817,-3.9829,-3.9854,-3.9883,-3.9914,-3.9934,-3.9964,-4.0005,-4.0014,-4.0022,-4.0024,-4.0026,-4.003,-4.0055,-4.006,-4.0011,-4.0011,-4.0011,0,0,-3.9604,-3.9636,-3.9654,-3.9706,-3.9731,-3.9763,-3.9763,-3.9797,-3.9821,-3.9833,-3.9874,-3.9893,-3.9926,-3.9968,-3.9987,-3.9983,-4.0045,-4.0029,-4.003,-4.0033,-4.0058,-4.0062,-4.0067,-4.0012,-4.0012,-4.0012,0,0,-3.9628,-3.9654,-3.9687,-3.9713,-3.9752,-3.9773,-3.978,-3.9821,-3.9835,-3.9877,-3.9888,-3.9916,-3.9968,-3.9993,-4.0012,-4.0049,-4.0055,-4.0058,-4.007,-4.0095,-4.0099,-4.0102,-4.0117,-4.0122,-4.0061,-4.0061,-4.0061,0,-3.9626,-3.9677,-3.9701,-3.9736,-3.9759,-3.9776,-3.9809,-3.9832,-3.9878,-3.9893,-3.9889,-3.9959,-3.9982,-4.003,-4.004,-4.0054,-4.0064,-4.0054,-4.0097,-4.01,-4.0104,-4.0119,-4.0124,-4.0062,-4.0062,-4.0062,-4.0061,0,-3.9675,-3.971,-3.9732,-3.978,-3.9805,-3.9838,-3.9867,-3.989,-3.9902,-3.9923,-3.9965,-3.9995,-4.0033,-4.0045,-4.0055,-4.0096,-4.0093,-4.0093,-4.0085,-4.0109,-4.0123,-4.0128,-4.0062,-4.0062,-4.0062,-4.0062,0,0,-3.9688,-3.9753,-3.976,-3.9784,-3.983,-3.9857,-3.9892,-3.9932,-3.9952,-3.9983,-4.0013,-4.006,-4.0061,-4.0083,-4.0096,-4.0118,-4.0148,-4.0115,-4.0116,-4.0122,-4.0197,-4.0198,-4.0204,-4.0152,-4.0154,-4.0154,-4.0195,0,-3.9718,-3.9783,-3.9808,-3.9861,-3.9895,-3.9913,-3.9943,-3.9975,-3.9996,-4.0027,-4.0049,-4.0082,-4.008,-4.0094,-4.0116,-4.014,-4.0164,-4.0137,-4.018,-4.0182,-4.0173,-4.0211,-4.0211,-4.0248,-4.02,-4.0201,-4.0202,0,-3.9761,-3.9798,-3.9856,-3.9901,-3.9916,-3.9944,-3.9985,-4.0014,-4.005,-4.0064,-4.0091,-4.0104,-4.0141,-4.0131,-4.0183,-4.0164,-4.0184,-4.0198,-4.02,-4.0205,-4.0194,-4.0219,-4.026,-4.0266,-4.021,-4.021,-4.0209,0,-3.9767,-3.9831,-3.9875,-3.9894,-3.9947,-3.9967,-3.999,-4.0026,-4.0049,-4.0084,-4.01,-4.0137,-4.0158,-4.0187,-4.021,-4.02,-4.026,-4.0251,-4.0273,-4.0272,-4.0284,-4.0283,-4.0331,-4.0295,-4.0295,-4.0295,-4.0295,0,-3.9799,-3.9834,-3.9879,-3.9906,-3.9946,-3.9974,-4.0012,-4.0036,-4.0068,-4.01,-4.0116,-4.0145,-4.0173,-4.0205,-4.0223,-4.0265,-4.0273,-4.0285,-4.029,-4.0285,-4.0283,-4.0298,-4.0296,-4.0296,-4.0296,-4.0295,-4.0295,0,-3.9812,-3.9844,-3.9893,-3.9942,-3.9955,-3.9983,-4.0023,-4.005,-4.0073,-4.0113,-4.0124,-4.0159,-4.0198,-4.0225,-4.0273,-4.0286,-4.0331,-4.0334,-4.032,-4.0323,-4.0343,-4.0342,-4.0402,-4.0412,-4.0368,-4.0369,-4.0369,0,-3.9831,-3.9859,-3.9912,-3.9936,-3.996,-3.9998,-4.0024,-4.0052,-4.0078,-4.0124,-4.0146,-4.0187,-4.0222,-4.0283,-4.0313,-4.0351,-4.0356,-4.0375,-4.0361,-4.0357,-4.0358,-4.0357,-4.0361,-4.0377,-4.0377,-4.0377,-4.0377,0,-3.9861,-3.9876,-3.9914,-3.9959,-3.999,-4.0026,-4.0061,-4.0079,-4.0114,-4.0142,-4.0185,-4.0212,-4.0265,-4.0306,-4.0348,-4.037,-4.038,-4.0382,-4.0389,-4.0384,-4.0376,-4.0383,-4.0327,-4.038,-4.038,-4.038,-4.0379,-4.0379,-3.9878,-3.9906,-3.9949,-3.9991,-4.0022,-4.0056,-4.0085,-4.0114,-4.015,-4.0198,-4.0212,-4.0257,-4.0295,-4.0353,-4.0376,-4.0411,-4.0409,-4.0418,-4.0421,-4.0423,-4.0425,-4.037,-4.0418,-4.0418,-4.0418,-4.0418,-4.0418,0,-3.9911,-3.9941,-3.998,-4.0032,-4.0066,-4.0075,-4.0116,-4.0143,-4.0183,-4.0219,-4.0255,-4.0305,-4.0346,-4.038,-4.0422,-4.0443,-4.0449,-4.0453,-4.0452,-4.0458,-4.0423,-4.0414,-4.0448,-4.0448,-4.0448,-4.0448,-4.0448,-4.0448,-3.9932,-3.998,-4.0001,-4.0064,-4.0093,-4.014,-4.0163,-4.0194,-4.0224,-4.028,-4.0316,-4.0339,-4.0374,-4.042,-4.0458,-4.0467,-4.0482,-4.0486,-4.0496,-4.0463,-4.046,-4.0456,-4.0448,-4.0489,-4.0489,-4.0528,-4.0528,-4.0528]}]]